ZHUHAI-1 01 (CAS-4A) (42761 NORAD) Tracking and Keplerian Element Data

This shows tracking and keplerian element data for the satellite.

Feedback or suggestion? Click here.




ElementValue
Catalog42761
NameZHUHAI-1 01 (CAS-4A)
Epoch Orbit29175
Epoch Day270.13926792
Epoch Year2022
RAAN130.6606
Inclination43.0168
Eccentricity0.0009926
Argument of Perigee220.2561
Mean Anonmoly285.0662
Mean Motion15.1263185
Decay Rate3.939E-05
L11 42761U 17034D 22270.13926792 .00003939 00000+0 23388-3 0 9997
L22 42761 43.0168 130.6606 0009926 220.2561 285.0662 15.12631850291755

Live tracking and technical data element details for ZHUHAI-1 01 (CAS-4A) (NORAD 42761). ZHUHAI-1 01 (CAS-4A) can be tracked NOW for your location showing map with azimuth and elevation plus other details from your city location.

Track the satellite on the map from your city or location and see movement details for azimuth, elevation, latitude, longitude, range, height, and movement on the map or in text.







IsCatalogInMostPopularTable: catalog: 42761, numindb: 646
Update: records affected: 1



GetName: 42761 ZHUHAI-1 01 (CAS-4A)

Hit Count: updated at: Wed, 28 Sep 2022 23:40:28 GMT